Location: Banios
(43.0451°N, 0.2335°E)
Time: 20:36:54
(UTC+00:00)

CZ-4B R/B - Pass Details

Date: 25 January 2021
Orbit: 486 x 651 km, 97.9° (Epoch: 01 March)

Event Time Altitude Azimuth Distance (km) Brightness Sun altitude
Rises 05:04:02 0° 18° (NNE) 2,579 6.4 -24.9°
Reaches altitude 10° 05:06:08 10° 24° (NNE) 1,703 5.5 -24.5°
Maximum altitude 05:09:41 50° 100° (E) 653 3.5 -23.9°
Drops below altitude 10° 05:13:21 10° 177° (S) 1,752 5.5 -23.2°
Sets 05:15:32 0° 183° (S) 2,661 6.4 -22.8°
